Biloxi, MS

6:28 AM CST on February 26, 2017 (GMT -0600)
Keesler Air Force Base

Weather History for KBIX - April, 2014

Change the Weather History Date:

Sunday, April 20, 2014

  Actual Average Record
Temperature  
Mean Temperature 66 °F -  
Max Temperature 78 °F 77 °F 84 °F (2006)
Min Temperature 56 °F 62 °F 42 °F (1953)
Cooling Degree Days 1    
Growing Degree Days 16 (Base 50)    
Moisture  
Dew Point 56 °F    
Average Humidity 75    
Maximum Humidity 91    
Minimum Humidity 42    
Precipitation  
Precipitation 0.00 in - - ()
Sea Level Pressure  
Sea Level Pressure 30.15 in    
Wind  
Wind Speed 6 mph (East)    
Max Wind Speed 15 mph    
Max Gust Speed -    
Visibility 10 miles    
Events      
Averages and records for this station are not official NWS values.
T = Trace of Precipitation, MM = Missing Value Source: NWS Daily Summary

Daily Weather History Graph

Daily Weather History Graph

Search for Another Location

Airport or City:

Trip Planner

Search our weather history database for the weather conditions in past years. The results will help you decide how hot, cold, wet, or windy it might be!

Date:

Astronomy

Apr. 20, 2014 Rise Set
Actual Time 6:23 AM CDT 7:26 PM CDT
Civil Twilight 5:58 AM CDT 7:51 PM CDT
Nautical Twilight 5:28 AM CDT 8:21 PM CDT
Astronomical Twilight 4:58 AM CDT 8:51 PM CDT
Moon No Moon Rise 10:51 AM CDT (4/20)
Length of Visible Light 13h 53m
Length of Day
13h 03m
Waning Gibbous, 68% of the Moon is Illuminated
Apr 20
Waning Gibbous
Apr 22
Last Quarter
Apr 29
New
May 6
First Quarter
May 14
Full

Hourly Weather History & Observations

Time (CDT) Temp. Dew Point Humidity Pressure Visibility Wind Dir Wind Speed Gust Speed Precip Events Conditions
12:58 AM 60.8 °F 54.3 °F 79% 30.11 in 10.0 mi NE 4.6 mph - N/A   Clear
1:58 AM 58.3 °F 52.7 °F 82% 30.10 in 10.0 mi NE 4.6 mph - N/A   Clear
2:58 AM 61.3 °F 54.0 °F 77% 30.11 in 10.0 mi East 5.8 mph - N/A   Clear
3:58 AM 60.6 °F 55.6 °F 83% 30.13 in 10.0 mi East 4.6 mph - N/A   Clear
4:23 AM 59.0 °F 55.4 °F 88% 30.12 in 9.0 mi ENE 2.3 mph - N/A   Clear
4:28 AM 59.0 °F 55.4 °F 88% 30.13 in 9.0 mi NE 2.3 mph - N/A   Clear
4:58 AM 56.8 °F 54.3 °F 91% 30.14 in 10.0 mi NE 3.5 mph - N/A   Clear
5:58 AM 57.7 °F 53.6 °F 86% 30.16 in 10.0 mi East 6.9 mph - N/A   Clear
6:58 AM 58.8 °F 54.1 °F 84% 30.19 in 10.0 mi NNE 2.3 mph - N/A   Clear
7:58 AM 61.3 °F 55.9 °F 82% 30.20 in 10.0 mi NE 6.9 mph - N/A   Clear
8:58 AM 64.9 °F 54.3 °F 68% 30.19 in 10.0 mi ENE 9.2 mph - N/A   Clear
9:58 AM 68.2 °F 54.9 °F 62% 30.20 in 10.0 mi North 6.9 mph - N/A   Clear
10:58 AM 71.4 °F 56.7 °F 60% 30.20 in 10.0 mi North 5.8 mph - N/A   Clear
11:58 AM 74.8 °F 55.8 °F 51% 30.18 in 10.0 mi NE 8.1 mph - N/A   Clear
12:58 PM 76.6 °F 52.0 °F 42% 30.17 in 10.0 mi NE 13.8 mph - N/A   Clear
1:58 PM 75.9 °F 59.7 °F 57% 30.16 in 10.0 mi South 11.5 mph - N/A   Clear
2:58 PM 71.1 °F 59.4 °F 66% 30.16 in 10.0 mi South 15.0 mph - N/A   Clear
3:58 PM 68.9 °F 59.0 °F 71% 30.14 in 10.0 mi South 11.5 mph - N/A   Clear
4:58 PM 68.5 °F 57.6 °F 68% 30.13 in 10.0 mi South 9.2 mph - N/A   Clear
5:58 PM 68.0 °F 57.2 °F 68% 30.13 in 10.0 mi South 6.9 mph - N/A   Clear
6:58 PM 66.2 °F 57.7 °F 74% 30.12 in 10.0 mi SSE 6.9 mph - N/A   Clear
7:58 PM 64.9 °F 58.6 °F 80% 30.14 in 10.0 mi SSE 5.8 mph - N/A   Clear
8:58 PM 64.2 °F 58.5 °F 82% 30.15 in 10.0 mi SSE 9.2 mph - N/A   Clear
9:58 PM 63.7 °F 58.8 °F 84% 30.16 in 10.0 mi SSE 8.1 mph - N/A   Clear
10:58 PM 63.7 °F 58.8 °F 84% 30.16 in 10.0 mi SSE 6.9 mph - N/A   Clear
11:58 PM 63.7 °F 59.0 °F 85% 30.16 in 10.0 mi SSE 8.1 mph - N/A   Clear